This is the latest recevied weather packets stored in our database for station/object WO5CID. If no packets are shown the sender has not sent any weather packets the latest 10 day(s).
| Time | Temp. | Humidity | Pressure | Rain* | Wind** | Luminosity | Snow |
|---|---|---|---|---|---|---|---|
| 1777383507 | 25° C | 74% | 1020.6 hPa | 0 mm | - | 260 W/m² | - |
| 1777383203 | 25° C | 73% | 1020.5 hPa | 0 mm | - | 569 W/m² | - |
| 1777382900 | 24.44° C | 74% | 1020.2 hPa | 0 mm | - | 456 W/m² | - |
| 1777382596 | 24.44° C | 74% | 1020.4 hPa | 0 mm | - | 153 W/m² | - |
| 1777382291 | 24.44° C | 77% | 1020.2 hPa | 0 mm | - | 404 W/m² | - |
| 1777381988 | 24.44° C | 75% | 1020.3 hPa | 0 mm | - | 384 W/m² | - |
| 1777381683 | 24.44° C | 75% | 1020.2 hPa | 0 mm | - | 368 W/m² | - |
| 1777381379 | 24.44° C | 77% | 1020.3 hPa | 0 mm | - | 285 W/m² | - |
| 1777381075 | 23.89° C | 78% | 1020.2 hPa | 0 mm | - | 288 W/m² | - |
| 1777380772 | 23.33° C | 81% | 1020.3 hPa | 0 mm | - | 248 W/m² | - |
| 1777380468 | 22.78° C | 82% | 1020.4 hPa | 0 mm | - | 207 W/m² | - |
| 1777380165 | 22.22° C | 87% | 1020.3 hPa | 0 mm | - | 180 W/m² | - |
| 1777379861 | 21.11° C | 92% | 1020.4 hPa | 0 mm | - | 157 W/m² | - |
| 1777379557 | 20.56° C | 98% | 1020.3 hPa | 0 mm | - | 133 W/m² | - |
| 1777379252 | 19.44° C | 98% | 1020 hPa | 0 mm | - | 115 W/m² | - |
| 1777378947 | 18.89° C | 98% | 1019.9 hPa | 0 mm | - | 101 W/m² | - |
| 1777378643 | 18.89° C | 98% | 1019.8 hPa | 0 mm | - | 55 W/m² | - |
| 1777378340 | 18.33° C | 99% | 1019.8 hPa | 0 mm | - | 70 W/m² | - |
| 1777378040 | 17.78° C | 98% | 1019.8 hPa | 0 mm | - | 38 W/m² | - |
| 1777377734 | 17.78° C | 98% | 1019.7 hPa | 0 mm | - | 34 W/m² | - |
| 1777377429 | 17.22° C | 98% | 1019.6 hPa | 0 mm | - | 32 W/m² | - |
| 1777377125 | 17.22° C | 98% | 1019.5 hPa | 0 mm | - | 31 W/m² | - |
| 1777376823 | 17.22° C | 98% | 1019.4 hPa | 0 mm | - | 30 W/m² | - |
| 1777376520 | 16.67° C | 98% | 1019.5 hPa | 0 mm | - | 28 W/m² | - |
| 1777376215 | 16.67° C | 98% | 1019.4 hPa | 0 mm | - | 26 W/m² | - |
* Rain latest hour (hover to see other rain measurements)
** Current wind speed in m/s (hover to see current wind gust speed)